Location: Strawberry
(45.6646°N, 111.9596°W)
Time: 19:48:24
(UTC+00:00)

RS-15 - Pass Details

Date: 09 December 2022
Orbit: 1883 x 2162 km, 64.8° (Epoch: 08 February)

Event Time Altitude Azimuth Distance (km) Brightness Sun altitude
Rises 05:32:37 0° 319° (NW) 5,649 10.9 -58.4°
Reaches altitude 10° 05:37:17 10° 305° (NW) 4,608 10.3 -59.1°
Enters shadow 05:44:59 21° 264° (W) 3,697 9.5 -60.1°
